Tracking 25723 objects as of 27-Jun-2022
HD Live streaming from Space Station
objects crossing your sky now

DMSP 5D-2 F13 DEB

Track DMSP 5D-2 F13 DEB now!
10-day predictions


NORAD ID: 42268
Int'l Code: 1995-015GJ
Perigee: 824.8 km
Apogee: 1,034.4 km
Inclination: 98.8 °
Period: 103.5 minutes
Semi major axis: 7300 km
RCS: Unknown
Launch date: March 24, 1995
Source: United States (US)
Launch site: AIR FORCE WESTERN TEST RANGE (AFWTR)

Note: This is SATELLITE DEBRIS
aabbcc
Your satellite tracking list
Your tracking list is empty




NASA's NSSDC Master Catalog

Two Line Element Set (TLE):
1 42268U 95015GJ  22177.46189808  .00002140  00000-0  15761-2 0  9994
2 42268  98.7682  58.9116 0143574  66.1897 295.4241 13.91771328364300
Source of the keplerian elements: AFSPC